SSEC Globe Logo

Space Science and Engineering Center

Surface Aviation Observations

KAIG 041315Z AUTO 28011G20KT 10SM CLR M05/M10 A3011 RMK AO2
     T10521105=
KAIG 041315Z AUTO 28011G20KT 10SM CLR M05/M10 A3011 RMK AO2
     T10521105=
KAIG 041255Z AUTO 28012KT 10SM CLR M05/M10 A3011 RMK AO2
     T10511105=
KAIG 041255Z AUTO 28012KT 10SM CLR M05/M10 A3011 RMK AO2
     T10511105=
KC29 041315Z AUTO 00000KT 10SM CLR M03/M05 A3026 RMK AO1
     T10261049=
KC29 041315Z AUTO 00000KT 10SM CLR M03/M05 A3026 RMK AO1
     T10261049=
KC29 041255Z AUTO 00000KT 10SM CLR M02/M04 A3025 RMK AO1
     T10211039=
KC29 041255Z AUTO 00000KT 10SM CLR M02/M04 A3025 RMK AO1
     T10211039=
KBCK 041315Z AUTO 27006KT 10SM CLR M02/M09 A3026 RMK AO2
     T10201086=
KBCK 041315Z AUTO 27006KT 10SM CLR M02/M09 A3026 RMK AO2
     T10201086=
KBCK 041255Z AUTO 26003KT 10SM CLR M02/M08 A3026 RMK AO2
     T10201084=
KBCK 041255Z AUTO 26003KT 10SM CLR M02/M08 A3026 RMK AO2
     T10201084=
KUBE 041315Z AUTO 30007KT 10SM SCT120 M01/M10 A3023 RMK AO2=
KUBE 041315Z AUTO 30007KT 10SM SCT120 M01/M10 A3023 RMK AO2=
KUBE 041255Z AUTO 30009KT 10SM SCT120 M01/M09 A3022 RMK AO2=
KUBE 041255Z AUTO 30009KT 10SM SCT120 M01/M09 A3022 RMK AO2=
KPVB 041315Z AUTO 29003KT 10SM BKN095 OVC110 A3029 RMK AO1=
KPVB 041315Z AUTO 29003KT 10SM BKN095 OVC110 A3029 RMK AO1=
KPVB 041255Z AUTO 30004KT 10SM BKN095 BKN110 A3029 RMK AO1=
KPVB 041255Z AUTO 30004KT 10SM BKN095 BKN110 A3029 RMK AO1=
KEZS 041315Z AUTO 28006KT 10SM CLR M01/M08 A3016 RMK AO2
     T10141085=
KEZS 041315Z AUTO 28006KT 10SM CLR M01/M08 A3016 RMK AO2
     T10141085=
KEZS 041255Z AUTO 28008KT 10SM CLR M01/M08 A3015 RMK AO2
     T10121085=
KEZS 041255Z AUTO 28008KT 10SM CLR M01/M08 A3015 RMK AO2
     T10121085=
KARV 041255Z AUTO 29009G16KT 10SM CLR M04/M20 A3009 RMK AO2
     T10431198=
KARV 041255Z AUTO 29009G16KT 10SM CLR M04/M20 A3009 RMK AO2
     T10431198=
KASX 041253Z AUTO 28012G27KT 10SM CLR M04/M11 A3017 RMK AO2
     PK WND 27031/1235 SLP229 T10391111=
KASX 041253Z AUTO 28012G27KT 10SM CLR M04/M11 A3017 RMK AO2
     PK WND 27031/1235 SLP229 T10391111=
KATW 041245Z 26010KT 10SM SCT120 M03/M09 A3016=
KATW 041245Z 26010KT 10SM SCT120 M03/M09 A3016=
KAUW 041254Z AUTO 27011KT 10SM CLR M03/M10 A3015 RMK AO2
     SLP227 T10281100 $=
KAUW 041254Z AUTO 27011KT 10SM CLR M03/M10 A3015 RMK AO2
     SLP227 T10281100 $=
KBUU 041255Z AUTO 28006KT 10SM M01/M04 A3024 RMK AO2
     T10071038 PWINO=
KBUU 041255Z AUTO 28006KT 10SM M01/M04 A3024 RMK AO2
     T10071038 PWINO=
KCLI 041315Z AUTO 30008G18KT 10SM CLR M02/M10 A3019 RMK AO2=
KCLI 041315Z AUTO 30008G18KT 10SM CLR M02/M10 A3019 RMK AO2=
KCLI 041255Z AUTO 30008KT 10SM CLR M02/M09 A3018 RMK AO2=
KCLI 041255Z AUTO 30008KT 10SM CLR M02/M09 A3018 RMK AO2=
KCMY 041258Z AUTO 00000KT 10SM BKN130 M06/M07 A3028 RMK AO2
     SLP270 T10591073 $=
KCWA 041252Z 27007KT 10SM SCT120 M05/M10 A3019=
KCWA 041252Z 27007KT 10SM SCT120 M05/M10 A3019=
KDLL 041315Z AUTO 30005KT 10SM OVC120 M03/M10 A3025 RMK AO2
     T10261098=
KDLL 041315Z AUTO 30005KT 10SM OVC120 M03/M10 A3025 RMK AO2
     T10261098=
KDLL 041255Z AUTO 30006KT 10SM BKN120 M03/M10 A3024 RMK AO2
     T10281097=
KDLL 041255Z AUTO 30006KT 10SM BKN120 M03/M10 A3024 RMK AO2
     T10281097=
KEAU 041256Z 25007KT 10SM CLR M03/M09 A3025 RMK AO2 SLP254
     T10281089=
KEAU 041256Z 25007KT 10SM CLR M03/M09 A3025 RMK AO2 SLP254
     T10281089=
KEFT 041315Z AUTO 30009KT 10SM SCT110 M02/M03 A3025 RMK AO2
     T10181027=
KEFT 041315Z AUTO 30009KT 10SM SCT110 M02/M03 A3025 RMK AO2
     T10181027=
KEFT 041255Z AUTO 31008KT 10SM BKN110 M02/M02 A3025 RMK AO2
     T10161025=
KEFT 041255Z AUTO 31008KT 10SM BKN110 M02/M02 A3025 RMK AO2
     T10161025=
KEGV 041315Z AUTO 28008KT 10SM CLR M06/M12 A3007 RMK AO2
     T10611118=
KEGV 041315Z AUTO 28008KT 10SM CLR M06/M12 A3007 RMK AO2
     T10611118=
KEGV 041255Z AUTO 27007KT 10SM CLR M06/M12 A3007 RMK AO2
     T10601119=
KEGV 041255Z AUTO 27007KT 10SM CLR M06/M12 A3007 RMK AO2
     T10601119=
KENW 041253Z 27007KT 8SM CLR M01/M02 A3023 RMK AO2 SLP245
     T10061022=
KENW 041253Z 27007KT 8SM CLR M01/M02 A3023 RMK AO2 SLP245
     T10061022=
KETB 041315Z AUTO 29009KT 10SM CLR M02/M06 A3020 RMK AO2=
KETB 041315Z AUTO 29009KT 10SM CLR M02/M06 A3020 RMK AO2=
KETB 041255Z AUTO 29009KT 10SM CLR M01/M06 A3020 RMK AO2=
KETB 041255Z AUTO 29009KT 10SM CLR M01/M06 A3020 RMK AO2=
KFLD 041253Z AUTO 29008KT 10SM CLR M01/M08 A3020 RMK AO2
     SLP236 T10061078=
KFLD 041253Z AUTO 29008KT 10SM CLR M01/M08 A3020 RMK AO2
     SLP236 T10061078=
KGRB 041253Z 27008KT 10SM CLR M02/M08 A3016 RMK AO2 SLP224
     T10171083=
KGRB 041253Z 27008KT 10SM CLR M02/M08 A3016 RMK AO2 SLP224
     T10171083=
KHYR 041253Z AUTO VRB04KT 10SM CLR M04/M12 A3019 RMK AO2
     SLP243 T10391117=
KHYR 041253Z AUTO VRB04KT 10SM CLR M04/M12 A3019 RMK AO2
     SLP243 T10391117=
KISW 041254Z AUTO 28008KT 10SM CLR M03/M09 A3023 RMK AO2
     SLP249 T10331089=
KISW 041254Z AUTO 28008KT 10SM CLR M03/M09 A3023 RMK AO2
     SLP249 T10331089=
KJVL 041245Z 00000KT 4SM BR BKN150 M01/M01 A3025=
KJVL 041245Z 00000KT 4SM BR BKN150 M01/M01 A3025=
KLNL 041315Z AUTO 28009KT 10SM OVC031 M04/M10 A3007 RMK AO2
     T10451102=
KLNL 041315Z AUTO 28009KT 10SM OVC031 M04/M10 A3007 RMK AO2
     T10451102=
KLNL 041255Z AUTO 28007G15KT 10SM OVC033 M04/M10 A3008 RMK
     AO2 T10421102=
KLNL 041255Z AUTO 28007G15KT 10SM OVC033 M04/M10 A3008 RMK
     AO2 T10421102=
KLNR 041256Z AUTO 28006KT 10SM BKN100 M02/M04 A3028 RMK AO2
     SLP257 T10221039=
KLNR 041256Z AUTO 28006KT 10SM BKN100 M02/M04 A3028 RMK AO2
     SLP257 T10221039=
KLSE 041253Z 31008KT 10SM OVC110 01/M08 A3029 RMK AO2 SLP270
     T00061083=
KLSE 041253Z 31008KT 10SM OVC110 01/M08 A3029 RMK AO2 SLP270
     T00061083=
KLUM 041255Z AUTO 27009KT 10SM M01/M08 A3026 RMK AO2
     T10081082=
KLUM 041255Z AUTO 27009KT 10SM M01/M08 A3026 RMK AO2
     T10081082=
KMDZ 041315Z AUTO 28009KT 10SM CLR M04/M10 A3016 RMK AO2
     T10451100 PWINO=
KMDZ 041315Z AUTO 28009KT 10SM CLR M04/M10 A3016 RMK AO2
     T10451100 PWINO=
KMDZ 041255Z AUTO 28009KT 10SM CLR M04/M10 A3015 RMK AO2
     T10451100 PWINO=
KMDZ 041255Z AUTO 28009KT 10SM CLR M04/M10 A3015 RMK AO2
     T10451100 PWINO=
KMFI 041254Z AUTO 28009KT 10SM CLR M04/M09 A3019 RMK AO2
     SLP242 T10441094=
KMFI 041254Z AUTO 28009KT 10SM CLR M04/M09 A3019 RMK AO2
     SLP242 T10441094=
KMKE 041252Z 30008KT 10SM BKN250 01/M04 A3022 RMK AO2 SLP241
     T00061044=
KMKE 041252Z 30008KT 10SM BKN250 01/M04 A3022 RMK AO2 SLP241
     T00061044=
KMSN 041253Z 28003KT 10SM FEW120 BKN250 M02/M06 A3024 RMK
     AO2 SLP251 T10221056=
KMSN 041253Z 28003KT 10SM FEW120 BKN250 M02/M06 A3024 RMK
     AO2 SLP251 T10221056=
KMTW 041256Z AUTO 29013KT 10SM CLR M02/M07 A3016 RMK AO2
     SLP221 T10171067 FZRANO=
KMTW 041256Z AUTO 29013KT 10SM CLR M02/M07 A3016 RMK AO2
     SLP221 T10171067 FZRANO=
KMWC 041315Z AUTO 27005KT 10SM CLR M01/M06 A3023 RMK AO2=
KMWC 041315Z AUTO 27005KT 10SM CLR M01/M06 A3023 RMK AO2=
KMWC 041255Z AUTO 27006KT 10SM CLR M01/M05 A3022 RMK AO2=
KMWC 041255Z AUTO 27006KT 10SM CLR M01/M05 A3022 RMK AO2=
KOEO 041315Z AUTO 28007KT 10SM CLR 00/M07 A3031 RMK AO2
     T00001071=
KOEO 041315Z AUTO 28007KT 10SM CLR 00/M07 A3031 RMK AO2
     T00001071=
KOEO 041255Z AUTO 29007KT 10SM CLR 00/M07 A3031 RMK AO2
     T00001070=
KOEO 041255Z AUTO 29007KT 10SM CLR 00/M07 A3031 RMK AO2
     T00001070=
KOSH 041253Z 28009KT 10SM CLR M03/M07 A3018 RMK AO2 SLP236
     T10281072=
KOSH 041253Z 28009KT 10SM CLR M03/M07 A3018 RMK AO2 SLP236
     T10281072=
KOVS 041253Z AUTO 20005KT 7SM OVC100 M02/M04 A3030 RMK AO2
     SLP271 T10221039=
KOVS 041253Z AUTO 20005KT 7SM OVC100 M02/M04 A3030 RMK AO2
     SLP271 T10221039=
KPBH 041315Z AUTO 30005G15KT 10SM CLR M05/M11 A3014 RMK AO2
     T10501110=
KPBH 041315Z AUTO 30005G15KT 10SM CLR M05/M11 A3014 RMK AO2
     T10501110=
KPBH 041255Z AUTO 27007KT 10SM CLR M05/M11 A3014 RMK AO2
     T10511110=
KPBH 041255Z AUTO 27007KT 10SM CLR M05/M11 A3014 RMK AO2
     T10511110=
KPCZ 041315Z AUTO 27008KT 10SM CLR M02/M08 A3020 RMK AO2
     T10161085=
KPCZ 041315Z AUTO 27008KT 10SM CLR M02/M08 A3020 RMK AO2
     T10161085=
KPCZ 041255Z AUTO 27009G14KT 10SM CLR M02/M08 A3020 RMK AO2
     T10161084=
KPCZ 041255Z AUTO 27009G14KT 10SM CLR M02/M08 A3020 RMK AO2
     T10161084=
KPDC 041315Z AUTO 00000KT 10SM OVC090 M01/M04 A3031 RMK AO2
     T10151036=
KPDC 041315Z AUTO 00000KT 10SM OVC090 M01/M04 A3031 RMK AO2
     T10151036=
KPDC 041255Z AUTO 00000KT 10SM BKN090 OVC120 M01/M04 A3031
     RMK AO2 T10131041=
KPDC 041255Z AUTO 00000KT 10SM BKN090 OVC120 M01/M04 A3031
     RMK AO2 T10131041=
KRAC 041253Z AUTO 29007KT 10SM CLR 00/M03 A3024 RMK AO2
     SLP246 T00001028=
KRAC 041253Z AUTO 29007KT 10SM CLR 00/M03 A3024 RMK AO2
     SLP246 T00001028=
KRCX 041255Z AUTO 30007KT 10SM M03/M10 A3020 RMK AO2
     T10331097=
KRCX 041255Z AUTO 30007KT 10SM M03/M10 A3020 RMK AO2
     T10331097=
KRHI 041253Z AUTO 28013G22KT 10SM CLR M06/M12 A3010 RMK AO2
     SLP215 T10561117=
KRHI 041253Z AUTO 28013G22KT 10SM CLR M06/M12 A3010 RMK AO2
     SLP215 T10561117=
KRNH 041315Z AUTO 30007KT 10SM CLR M02/M10 A3028 RMK AO2
     T10181103=
KRNH 041315Z AUTO 30007KT 10SM CLR M02/M10 A3028 RMK AO2
     T10181103=
KRNH 041255Z AUTO 30009KT 10SM CLR M02/M10 A3027 RMK AO2
     T10201103=
KRNH 041255Z AUTO 30009KT 10SM CLR M02/M10 A3027 RMK AO2
     T10201103=
KRPD 041315Z AUTO 28008KT 10SM BKN110 M01/M10 A3025 RMK AO2
     T10081097=
KRPD 041315Z AUTO 28008KT 10SM BKN110 M01/M10 A3025 RMK AO2
     T10081097=
KRPD 041255Z AUTO 28009KT 10SM CLR M01/M10 A3023 RMK AO2
     T10101096=
KRPD 041255Z AUTO 28009KT 10SM CLR M01/M10 A3023 RMK AO2
     T10101096=
KRRL 041315Z AUTO 28008KT 10SM CLR M04/M10 A3014 RMK AO2
     T10431105 TSNO=
KRRL 041315Z AUTO 28008KT 10SM CLR M04/M10 A3014 RMK AO2
     T10431105 TSNO=
KRRL 041255Z AUTO 29008KT 10SM CLR M04/M10 A3014 RMK AO2
     T10411105 TSNO=
KRRL 041255Z AUTO 29008KT 10SM CLR M04/M10 A3014 RMK AO2
     T10411105 TSNO=
KRYV 041315Z AUTO 28005KT 10SM CLR M02/M06 A3023 RMK AO2
     T10251062=
KRYV 041315Z AUTO 28005KT 10SM CLR M02/M06 A3023 RMK AO2
     T10251062=
KRYV 041255Z AUTO 28005KT 10SM CLR M02/M05 A3023 RMK AO2
     T10231055=
KRYV 041255Z AUTO 28005KT 10SM CLR M02/M05 A3023 RMK AO2
     T10231055=
KRZN 041315Z AUTO 27005KT 10SM CLR M04/M10 A3025 RMK AO2
     T10361097=
KRZN 041315Z AUTO 27005KT 10SM CLR M04/M10 A3025 RMK AO2
     T10361097=
KRZN 041255Z AUTO 27005KT 10SM CLR M04/M10 A3024 RMK AO2
     T10401100=
KRZN 041255Z AUTO 27005KT 10SM CLR M04/M10 A3024 RMK AO2
     T10401100=
KSBM 041253Z AUTO 29007G16KT 10SM CLR M01/M07 A3018 RMK AO2
     SLP228 T10061067=
KSBM 041253Z AUTO 29007G16KT 10SM CLR M01/M07 A3018 RMK AO2
     SLP228 T10061067=
KSTE 041315Z AUTO 27007KT 10SM CLR M03/M10 A3019 RMK AO2
     T10271102=
KSTE 041315Z AUTO 27007KT 10SM CLR M03/M10 A3019 RMK AO2
     T10271102=
KSTE 041255Z AUTO 27007KT 10SM CLR M02/M10 A3020 RMK AO2
     T10251102=
KSTE 041255Z AUTO 27007KT 10SM CLR M02/M10 A3020 RMK AO2
     T10251102=
KSUE 041256Z AUTO 29012G22KT 10SM CLR M01/M08 A3013 RMK AO2
     PK WND 29026/1213 SLP212 T10111083 FZRANO $=
KSUE 041256Z AUTO 29012G22KT 10SM CLR M01/M08 A3013 RMK AO2
     PK WND 29026/1213 SLP212 T10111083 FZRANO $=
KSUW 041315Z AUTO 28008G16KT 10SM CLR M04/M11 A3022 RMK AO2
     T10431113=
KSUW 041315Z AUTO 28008G16KT 10SM CLR M04/M11 A3022 RMK AO2
     T10431113=
KSUW 041255Z AUTO 27009G14KT 10SM CLR M05/M11 A3022 RMK AO2
     T10481113=
KSUW 041255Z AUTO 27009G14KT 10SM CLR M05/M11 A3022 RMK AO2
     T10481113=
KTKV 041315Z AUTO 28009G15KT 10SM CLR M04/M11 A3013 RMK AO2
     T10451108 PWINO=
KTKV 041315Z AUTO 28009G15KT 10SM CLR M04/M11 A3013 RMK AO2
     T10451108 PWINO=
KTKV 041255Z AUTO 28013G18KT 10SM CLR M04/M11 A3013 RMK AO2
     T10421108 PWINO=
KTKV 041255Z AUTO 28013G18KT 10SM CLR M04/M11 A3013 RMK AO2
     T10421108 PWINO=
KUES 041245Z 28007KT 10SM CLR M03/M04 A3023=
KUES 041245Z 28007KT 10SM CLR M03/M04 A3023=
KUNU 041315Z AUTO 25004KT 10SM SCT120 M03/M07 A3024 RMK AO2
     T10301074=
KUNU 041315Z AUTO 25004KT 10SM SCT120 M03/M07 A3024 RMK AO2
     T10301074=
KUNU 041255Z AUTO 00000KT 10SM SCT120 M03/M07 A3023 RMK AO2
     T10261067=
KUNU 041255Z AUTO 00000KT 10SM SCT120 M03/M07 A3023 RMK AO2
     T10261067=
KVOK 041256Z AUTO 27008KT 10SM SCT130 M05/M10 A3025 RMK AO2
     SLP260 T10521100=
KVOK 041256Z AUTO 27008KT 10SM SCT130 M05/M10 A3025 RMK AO2
     SLP260 T10521100=
KVOK 041256Z AUTO 27008KT 10SM SCT130 M05/M10 A3025 RMK AO2
     SLP260 T10521100=
METAR KVOK 041256Z AUTO 27008KT 10SM SCT130 M05/M10 A3025
     RMK AO2 SLP260 T10521100=
METAR KVOK 041256Z AUTO 27008KT 10SM SCT130 M05/M10 A3025
     RMK AO2 SLP260 T10521100=
KY50 041256Z AUTO 28008KT CLR M04/M08 RMK AO2 SLPNO
     T10391078 PWINO FZRANO $=
KY50 041256Z AUTO 28008KT CLR M04/M08 RMK AO2 SLPNO
     T10391078 PWINO FZRANO $=
KY51 041315Z AUTO 30007KT 10SM OVC100 M01/M06 A3025 RMK AO1
     T10151058=
KY51 041315Z AUTO 30007KT 10SM OVC100 M01/M06 A3025 RMK AO1
     T10151058=
KY51 041255Z AUTO 30007KT 10SM OVC100 M02/M06 A3025 RMK AO1
     T10161057=
KY51 041255Z AUTO 30007KT 10SM OVC100 M02/M06 A3025 RMK AO1
     T10161057=
KY23 041315Z AUTO 29004KT 10SM CLR M02/M10 A3024 RMK AO2
     T10161103=
KY23 041315Z AUTO 29004KT 10SM CLR M02/M10 A3024 RMK AO2
     T10161103=
KY23 041255Z AUTO 29005KT 10SM CLR M02/M10 A3022 RMK AO2
     T10181102=
KY23 041255Z AUTO 29005KT 10SM CLR M02/M10 A3022 RMK AO2
     T10181102=
K3D2 041315Z AUTO 28009G21KT 10SM SCT050 M02/M10 A3010 RMK
     AO2 T10161096=
K3D2 041315Z AUTO 28009G21KT 10SM SCT050 M02/M10 A3010 RMK
     AO2 T10161096=
K3D2 041255Z AUTO 29008G19KT 260V330 10SM CLR M01/M09 A3010
     RMK AO2 T10151095=
K3D2 041255Z AUTO 29008G19KT 260V330 10SM CLR M01/M09 A3010
     RMK AO2 T10151095=
K4R5 041315Z AUTO 28014G25KT 10SM CLR M03/M09 A3014 RMK AO2
     T10311091=
K4R5 041315Z AUTO 28014G25KT 10SM CLR M03/M09 A3014 RMK AO2
     T10311091=
K4R5 041255Z AUTO 28016G22KT 10SM CLR M03/M09 A3014 RMK AO2
     T10301090=
K4R5 041255Z AUTO 28016G22KT 10SM CLR M03/M09 A3014 RMK AO2
     T10301090=
KD25 041315Z AUTO 28009G19KT 10SM CLR M06/M12 A3009 RMK AO2
     T10611118=
KD25 041315Z AUTO 28009G19KT 10SM CLR M06/M12 A3009 RMK AO2
     T10611118=
KD25 041255Z AUTO 28012KT 10SM CLR M06/M12 A3008 RMK AO2
     T10601119=
KD25 041255Z AUTO 28012KT 10SM CLR M06/M12 A3008 RMK AO2
     T10601119=
K82C 041315Z AUTO 29007KT 5SM HZ CLR M02/M08 A3024 RMK AO2
     T10161084=
K82C 041315Z AUTO 29007KT 5SM HZ CLR M02/M08 A3024 RMK AO2
     T10161084=
K82C 041255Z AUTO 29007KT 7SM CLR M02/M09 A3024 RMK AO2
     T10211087=
K82C 041255Z AUTO 29007KT 7SM CLR M02/M09 A3024 RMK AO2
     T10211087=
KOCQ 041315Z AUTO 29006KT 10SM CLR M02/M09 A3015 RMK AO1
     T10251090=
KOCQ 041315Z AUTO 29006KT 10SM CLR M02/M09 A3015 RMK AO1
     T10251090=
KOCQ 041255Z AUTO 29005KT 10SM CLR M02/M09 A3014 RMK AO1
     T10241088=
KOCQ 041255Z AUTO 29005KT 10SM CLR M02/M09 A3014 RMK AO1
     T10241088=
KC35 041315Z AUTO 30005KT 10SM OVC110 M02/M09 A3025 RMK AO2
     T10181095 PWINO=
KC35 041315Z AUTO 30005KT 10SM OVC110 M02/M09 A3025 RMK AO2
     T10181095 PWINO=
KC35 041255Z AUTO 29004KT 10SM OVC120 M02/M09 A3025 RMK AO2
     T10211094 PWINO=
KC35 041255Z AUTO 29004KT 10SM OVC120 M02/M09 A3025 RMK AO2
     T10211094 PWINO=
KOLG 041315Z AUTO 28006KT 10SM CLR M04/M12 A3020 RMK AO1=
KOLG 041315Z AUTO 28006KT 10SM CLR M04/M12 A3020 RMK AO1=
KOLG 041255Z AUTO 28005KT 10SM CLR M04/M12 A3020 RMK AO1=
KOLG 041255Z AUTO 28005KT 10SM CLR M04/M12 A3020 RMK AO1=
K2P2 041315Z AUTO 28009G19KT 10SM OVC100 M01/M08 A3008 RMK
     AO2 T10121084=
K2P2 041315Z AUTO 28009G19KT 10SM OVC100 M01/M08 A3008 RMK
     AO2 T10121084=
K2P2 041255Z AUTO 29010G17KT 10SM BKN090 OVC110 M01/M09
     A3008 RMK AO2 T10111086=
K2P2 041255Z AUTO 29010G17KT 10SM BKN090 OVC110 M01/M09
     A3008 RMK AO2 T10111086=
KDBQ 041253Z 35008KT 10SM OVC100 M01/M04 A3028 RMK AO2
     SLP263 T10061044=
KDBQ 041253Z 35008KT 10SM OVC100 M01/M04 A3028 RMK AO2
     SLP263 T10061044=
KRST 041254Z 31011KT 10SM OVC090 M02/M06 A3028 RMK AO2
     SLP271 T10171061 $=
KRST 041254Z 31011KT 10SM OVC090 M02/M06 A3028 RMK AO2
     SLP271 T10171061 $=
KMSP 041253Z 31009KT 10SM SCT110 OVC120 M01/M09 A3031 RMK
     AO2 SLP274 T10111094=
KMSP 041253Z 31009KT 10SM SCT110 OVC120 M01/M09 A3031 RMK
     AO2 SLP274 T10111094=
KRFD 041301Z 28030KT 1/2SM R01/4000VP6000FT FZFG OVC003
     M01/M02 A3029=
KRFD 041301Z 28030KT 1/2SM R01/4000VP6000FT FZFG OVC003
     M01/M02 A3029 RMK AO2 TWR VIS 1 T10111022=
KRFD 041254Z 28003KT 1 1/2SM BR OVC002 M01/M02 A3027 RMK AO2
     SLP259 T10111022=
KRFD 041254Z 28003KT 1 1/2SM BR OVC002 M01/M02 A3027 RMK AO2
     SLP259 T10111022=
KORD 041251Z 26005KT 8SM FEW005 BKN170 00/M02 A3025 RMK AO2
     SLP248 T00001022=
KORD 041251Z 26005KT 8SM FEW005 BKN170 00/M02 A3025 RMK AO2
     SLP248 T00001022=